Helicity
72 60 58 57 61 62 82 112 102 80 80 83 64 67 91 117 117 211 199 168 76 108 32 21 92 101 92 79 57 32 53 50 15 20 -39 13 83 176 91 176 342 321 294 185 139
51 47 49 63 65 72 101 124 154 195 174 104 68 52 52 64 90 224 203 129 76 91 -9 43 82 124 83 13 6 20 16 24 24 45 87 165 172 97 125 194 224 261 262 188 129
55 61 66 74 86 111 128 152 187 203 148 105 17 21 26 59 -12 165 210 137 52 114 -24 -18 1 30 47 13 -26 -17 -2 121 213 253 308 310 368 206 174 263 255 218 198 170 109
70 73 76 86 112 125 131 123 148 151 163 123 81 84 84 14 21 126 151 72 3 68 112 159 107 38 78 85 53 188 174 151 225 272 328 393 435 495 412 277 232 176 79 70 70
65 64 69 85 95 104 118 101 102 105 119 185 121 57 53 28 78 113 67 -3 9 54 131 43 98 71 100 135 314 313 318 306 283 305 303 338 360 268 275 207 157 119 114 64 41
65 57 58 69 71 79 89 104 112 121 130 84 169 80 54 21 108 83 -42 -18 -1 10 122 55 -4 45 120 133 170 197 379 265 250 260 218 355 294 197 233 166 186 127 49 39 30
66 56 49 51 73 90 97 113 103 81 90 104 87 81 154 6 102 53 -11 -51 -58 -8 110 78 -21 64 84 205 151 229 345 303 245 143 122 153 386 288 172 175 154 101 74 62 52
66 58 54 72 88 102 122 121 98 94 106 59 44 68 -7 61 109 52 18 -7 -25 0 107 104 72 158 85 49 47 104 171 182 125 128 150 166 364 138 175 206 171 142 91 37 -15
64 67 81 90 101 124 136 160 103 82 52 22 15 -9 35 107 59 67 44 34 17 31 104 253 302 94 -9 32 65 60 67 85 79 128 159 209 248 175 181 217 179 133 69 -6 -51
71 71 78 103 118 113 106 84 196 54 62 78 29 20 62 74 90 80 18 22 12 76 86 157 122 92 81 21 -69 4 30 40 88 113 175 292 360 351 319 297 204 167 92 35 -18
69 54 57 87 117 114 68 48 81 124 151 -26 54 22 48 91 45 60 45 62 57 13 -19 -14 -92 -62 -27 -22 18 77 93 127 81 109 235 297 357 327 298 276 200 128 111 39 -12
68 54 41 68 109 112 84 45 97 57 37 43 43 41 46 60 57 71 56 50 17 28 30 -7 -9 3 44 50 86 98 119 104 81 114 225 276 340 308 325 276 176 151 104 60 -1
73 55 52 62 74 63 87 90 78 57 23 60 61 60 46 9 66 87 40 34 5 16 3 -37 17 42 51 79 82 76 119 114 139 173 167 269 326 355 282 226 215 204 172 138 97
81 82 86 83 45 62 56 93 56 26 39 84 59 55 52 49 46 56 41 74 56 87 82 82 41 65 64 86 92 118 105 146 142 161 213 212 322 220 261 309 325 262 230 202 160
86 100 98 51 26 41 67 68 43 12 20 38 41 31 24 24 61 44 44 32 65 73 85 85 92 105 90 80 87 127 116 201 204 223 219 238 300 209 241 281 309 299 239 207 182
80 103 51 59 59 62 70 34 11 4 27 31 30 32 25 18 26 51 18 35 62 89 79 88 91 120 127 126 93 99 153 209 236 248 311 273 309 202 323 306 298 309 278 283 259
78 100 38 50 54 81 59 31 9 -13 21 33 35 48 49 32 53 55 50 21 53 75 65 89 121 123 142 178 161 125 142 207 274 321 328 306 298 279 258 277 302 291 255 300 215
73 61 75 39 64 76 75 33 -23 28 23 8 16 35 37 39 53 55 61 56 54 75 100 103 119 178 167 184 226 210 155 243 304 384 323 142 325 281 259 203 236 275 285 265 233
43 71 66 82 78 83 61 34 5 21 18 -9 -4 23 33 53 69 79 72 82 76 70 95 104 129 185 181 186 207 236 235 232 348 363 410 336 299 195 218 198 222 245 294 277 223
46 66 81 97 88 78 58 17 23 20 17 3 26 23 48 41 51 63 72 84 96 83 93 122 116 178 228 228 189 222 233 263 258 373 448 409 363 400 291 234 217 225 244 188 173
53 72 80 96 88 89 47 20 26 25 19 20 8 31 40 40 57 63 75 73 90 105 113 135 135 160 232 239 273 272 282 288 301 369 430 531 408 298 287 237 264 259 234 180 170
52 62 90 97 103 81 62 43 43 35 51 41 46 50 47 53 58 62 70 79 105 103 119 117 148 149 145 150 197 261 294 333 377 332 449 548 393 252 241 233 285 277 227 189 179
49 50 78 88 69 79 72 76 65 55 47 44 45 49 49 59 53 68 73 87 113 111 116 128 158 135 135 153 179 248 290 345 368 391 400 485 419 319 264 286 262 272 236 230 185
52 59 79 97 73 63 70 69 71 77 63 62 53 66 70 58 63 70 92 85 113 126 135 121 167 188 221 195 203 229 275 306 405 424 449 552 410 281 327 281 232 216 236 235 202
54 36 49 49 71 76 81 58 88 63 69 64 60 55 66 59 70 77 106 125 131 149 131 135 134 185 171 128 140 128 88 223 390 425 469 383 458 289 268 233 194 191 222 219 217
61 61 73 63 84 111 88 51 66 79 71 54 63 60 67 69 68 59 116 100 101 127 136 155 141 156 147 112 164 117 109 151 230 317 334 313 263 239 204 206 183 190 211 211 220
55 65 78 67 95 112 69 61 52 93 60 69 57 87 77 57 81 81 113 126 142 161 135 163 153 152 104 143 85 93 94 180 211 250 321 331 288 241 218 209 189 177 199 205 189
Wind_Speed
9 13 14 14 11 11 12 14 17 20 17 16 17 16 14 10 36 57 52 30 37 36 29 35 46 43 43 44 40 39 37 38 34 37 29 32 36 39 34 33 35 34 33 38 43
10 12 13 13 11 8 7 9 10 12 14 16 19 23 27 16 21 55 41 39 43 30 37 43 48 51 50 50 46 40 41 43 37 31 29 34 35 39 37 38 38 37 40 44 48
17 17 15 14 12 11 8 7 9 16 24 22 29 26 30 23 29 20 35 36 45 29 50 49 50 51 53 51 48 46 44 41 43 39 38 36 42 43 43 46 42 40 42 47 50
20 19 20 19 14 10 9 9 12 19 25 22 13 19 20 19 4 13 23 27 38 37 46 45 49 53 58 54 49 51 47 42 43 43 44 47 44 49 42 39 39 40 43 46 51
17 18 17 13 11 11 11 11 12 14 16 18 12 8 4 36 8 6 13 42 48 52 43 55 52 53 51 54 65 59 53 54 50 51 50 49 52 47 45 38 40 43 47 50 51
14 14 14 14 13 13 12 10 7 5 6 6 6 8 11 41 11 9 38 51 54 61 54 60 50 54 53 47 49 49 56 52 50 51 48 52 52 46 45 40 45 49 51 53 55
12 14 16 15 14 14 13 13 12 10 8 6 6 25 46 8 23 47 55 40 60 69 65 60 46 44 57 63 55 51 53 55 57 40 40 41 57 47 40 42 49 52 54 54 56
12 14 14 13 13 12 12 12 13 14 12 17 22 13 21 8 33 26 49 61 71 68 73 63 54 60 48 48 43 39 41 41 43 52 46 40 48 40 40 45 51 54 55 56 57
13 14 16 15 13 15 13 12 12 19 17 25 23 41 26 8 29 35 41 46 57 71 66 71 66 59 51 45 43 48 41 44 40 54 48 49 43 34 35 41 46 49 53 55 56
14 15 17 17 17 15 17 24 9 15 21 26 18 27 8 21 25 31 50 51 51 48 63 70 69 73 72 58 54 48 44 41 42 44 54 50 43 37 33 39 44 47 54 57 57
18 19 20 20 18 15 23 33 25 16 11 46 46 63 32 27 20 0 28 28 31 61 64 57 71 82 69 67 58 53 52 50 41 39 44 44 43 35 29 29 34 36 41 51 54
22 25 24 24 20 16 20 28 32 42 26 21 36 31 28 32 35 10 38 43 52 66 46 55 83 63 60 55 58 55 54 52 45 50 49 42 40 32 26 24 26 30 29 33 48
24 28 31 29 27 21 19 24 23 38 29 25 26 27 25 24 40 7 47 50 61 68 71 73 55 57 59 61 56 52 52 45 46 51 49 45 42 32 25 22 21 22 22 22 29
24 27 32 35 32 31 30 25 24 31 32 19 19 21 23 34 30 18 29 40 42 49 49 55 46 56 59 60 50 56 42 39 44 44 51 42 57 34 27 26 23 22 21 21 23
24 26 29 30 35 34 33 28 27 29 38 26 22 24 19 34 33 21 28 52 53 49 41 46 45 48 55 53 49 49 41 38 40 45 44 46 52 45 38 35 26 22 20 23 24
25 26 31 30 31 34 33 30 27 31 37 29 29 27 25 26 34 35 40 48 43 51 57 47 41 42 43 46 51 44 49 42 41 44 51 49 55 52 46 43 38 26 22 22 24
27 26 29 33 32 34 31 29 31 35 34 32 28 31 31 30 36 39 45 58 50 49 51 43 41 39 38 44 43 56 58 56 58 56 55 46 49 43 39 35 33 31 27 21 19
27 26 27 31 33 32 27 29 37 36 35 29 29 31 28 31 35 40 40 46 49 46 45 51 53 43 39 45 48 54 59 61 64 63 51 39 50 48 40 35 30 29 28 23 22
23 25 28 31 30 29 26 32 36 35 32 29 28 26 24 30 34 39 42 40 41 45 47 45 44 39 39 40 45 50 58 43 50 44 56 48 43 36 38 39 34 31 30 27 24
22 23 26 31 28 28 27 28 30 31 31 31 25 26 25 32 35 38 37 35 38 39 39 38 42 38 39 41 43 46 45 53 54 63 68 55 52 50 48 47 41 35 34 33 32
23 23 29 29 27 28 32 31 30 30 29 32 32 31 34 35 35 35 35 33 34 36 37 38 38 42 41 41 44 45 49 49 47 47 59 66 57 38 42 42 43 38 38 37 37
24 26 31 30 26 29 30 28 28 27 29 31 32 33 33 34 35 32 31 33 31 35 39 36 36 39 36 36 34 36 40 42 53 52 42 47 48 36 38 37 37 40 38 38 38
24 24 29 29 28 30 32 31 31 29 29 30 30 31 31 33 37 32 32 33 30 35 37 36 39 44 43 39 35 38 35 33 38 41 41 49 47 40 37 35 34 39 38 38 38
22 23 29 30 31 26 28 32 32 31 29 29 29 29 31 32 31 34 32 30 28 33 35 35 36 34 36 35 37 37 34 31 32 41 42 34 38 40 41 37 33 34 36 37 36
25 23 24 28 31 28 28 28 28 31 31 26 32 27 29 34 34 33 32 31 30 29 33 34 36 34 25 19 20 23 25 27 27 24 34 39 39 38 37 34 35 34 36 38 37
22 24 27 29 31 22 26 28 25 28 26 32 30 27 23 30 30 36 31 29 30 28 31 33 37 41 38 36 33 30 24 25 23 24 23 27 34 29 32 34 35 34 35 37 39
28 29 28 29 27 25 30 23 23 22 28 31 26 30 25 26 29 31 27 30 28 28 26 33 37 45 45 43 38 38 37 35 37 31 32 39 36 38 36 33 33 35 36 36 36
Wind_Direction
224 211 212 222 249 277 296 306 304 297 279 256 236 225 231 290 353 11 0 319 315 312 314 347 9 11 15 19 17 15 358 348 341 330 326 331 339 356 360 357 358 353 343 334 335
225 214 217 220 231 254 260 283 301 309 303 293 263 205 171 296 351 11 339 335 337 321 347 10 18 15 23 25 20 22 12 357 0 6 357 344 335 323 324 334 333 335 340 340 341
185 189 197 200 204 210 239 269 312 333 334 323 330 296 174 182 340 332 332 338 344 328 27 34 35 27 28 24 15 16 24 30 19 21 13 1 345 332 323 324 326 324 328 333 340
172 177 177 179 197 233 250 285 316 336 342 338 318 4 349 200 327 291 331 340 347 349 14 8 40 34 31 27 23 31 26 33 21 19 13 0 6 348 345 331 333 334 334 334 333
183 184 187 204 227 241 253 281 295 322 339 345 333 226 197 26 323 218 341 353 358 4 4 54 37 45 40 48 39 43 43 44 44 36 27 19 0 352 345 349 342 336 333 332 333
205 217 230 237 247 244 249 253 242 250 311 328 6 197 186 26 170 156 358 4 6 10 9 32 66 60 46 50 37 67 50 45 41 32 22 10 356 347 346 346 339 335 331 330 328
226 238 237 247 233 227 229 213 227 231 219 175 189 142 32 31 138 21 21 1 11 16 17 12 66 62 63 57 70 61 43 39 31 31 24 10 358 353 349 344 336 331 328 326 325
254 244 233 221 225 212 211 225 221 202 186 172 163 127 128 135 131 357 70 21 22 22 23 17 68 56 64 67 58 52 44 33 28 25 22 15 357 1 353 342 332 327 325 323 321
253 237 215 216 212 203 216 209 205 183 168 150 157 112 135 176 349 106 78 64 42 26 21 24 39 60 58 73 64 49 46 34 31 27 28 28 21 29 21 2 349 342 332 325 321
241 219 212 207 208 217 215 179 163 187 175 155 153 118 152 125 124 112 80 79 79 69 46 22 58 46 47 61 54 49 46 40 37 29 29 34 38 41 43 17 0 352 336 328 323
234 220 213 210 209 223 195 173 173 157 91 38 113 87 125 128 122 112 119 90 94 67 65 72 62 47 58 58 60 55 48 43 37 34 37 41 45 47 49 41 22 15 3 340 330
241 227 220 213 211 211 190 175 159 143 135 141 124 132 128 116 104 80 97 87 71 56 78 67 43 61 61 61 54 51 45 41 43 43 42 46 41 44 48 44 34 25 24 13 340
250 234 224 218 213 210 198 182 189 150 155 148 139 130 142 122 95 46 78 76 58 51 46 52 64 58 55 51 50 49 43 42 42 47 49 45 33 38 44 41 38 33 30 28 16
255 239 224 216 215 210 201 212 210 173 153 166 167 141 127 120 110 104 100 85 82 71 67 62 67 54 50 48 50 42 42 47 46 42 36 44 27 34 36 32 33 32 31 26 26
260 245 228 230 218 216 214 229 222 204 139 174 173 160 140 120 114 100 92 71 69 68 71 65 63 56 50 49 48 42 40 52 50 45 42 38 33 36 39 26 19 24 26 27 29
263 252 226 228 230 226 232 238 229 181 145 176 153 148 132 120 102 96 83 72 78 62 58 65 67 61 57 53 47 40 42 51 48 43 36 38 36 30 33 28 27 27 28 32 32
266 263 244 230 235 240 244 242 192 165 190 165 167 139 113 107 86 74 64 49 58 54 52 58 60 60 59 46 48 40 40 41 38 37 32 41 32 26 28 22 21 24 24 33 30
278 267 260 246 246 245 255 246 171 184 184 217 175 123 120 90 74 63 62 55 54 56 55 48 46 53 57 49 42 42 43 42 34 31 25 28 34 29 31 25 25 25 30 27 19
309 279 265 258 255 250 268 261 177 224 245 247 285 148 128 75 62 53 51 56 56 53 49 47 48 57 56 56 50 43 38 48 39 41 33 37 31 19 31 25 22 22 23 14 12
329 298 279 263 267 268 279 289 281 282 287 299 113 42 83 50 43 43 50 58 54 56 57 53 45 52 54 54 53 47 51 38 38 32 29 30 27 25 25 21 23 23 12 13 14
339 310 281 274 277 281 279 288 294 302 314 307 330 4 9 20 28 37 45 52 56 52 53 51 49 43 49 46 41 43 40 43 41 41 32 26 23 32 24 23 24 22 15 17 16
331 312 280 279 286 288 288 299 308 315 323 331 342 345 1 11 20 33 40 43 54 50 43 49 48 34 41 45 52 49 41 43 35 33 33 26 24 36 24 23 23 18 18 21 25
334 330 300 292 289 288 291 296 305 312 320 332 342 349 1 6 8 19 26 34 47 40 40 45 39 29 36 41 43 37 40 41 38 35 26 27 21 24 20 20 19 16 21 25 28
349 338 310 297 296 298 295 296 299 310 322 336 344 355 357 1 11 12 18 31 39 33 37 39 36 33 25 24 28 24 29 33 36 29 25 16 356 358 9 12 16 20 25 28 28
338 342 335 312 294 298 298 302 301 307 317 334 332 343 353 350 358 4 14 20 25 33 32 32 26 27 17 6 14 10 10 24 26 20 20 11 8 351 6 18 27 31 30 30 32
344 335 329 322 307 306 299 299 302 308 320 320 325 340 351 348 356 354 7 13 13 25 25 26 22 20 19 31 32 20 16 21 21 24 9 357 354 10 30 34 31 32 32 35 37
328 324 324 322 318 307 300 307 311 313 317 321 333 334 340 345 354 359 5 5 6 9 17 18 20 17 21 23 18 29 37 38 36 38 32 24 15 29 28 30 31 34 37 38 38